sat.trackr.live / text

‹ back to catalog

STARLINK-37177

NORAD 68611 · 2026-073K

PAYLOAD ACTIVE UNKNOWN

§ Identity

Operator
Country
US
Launch date
2026-04-07
Launch site
AFWTR
Launch vehicle
Mass (kg)
RCS (m²)

Purposes: comms

External: N2YO · Heavens-Above · Gunter

§ Orbital elements

Epoch: 2026-05-25T04:45:45.527904Z

Period
92.08 min
Inclination
97.2846°
Eccentricity
0.0000739
Mean motion
15.63868279 rev/d
Perigee alt
376.0 km
Apogee alt
377.0 km
Semi-major
6,754.6 km
B*
-1.4104e-2
RAAN
344.7902°
Arg perigee
97.4120°
Mean anomaly
262.7223°
Rev number
760

§ Raw data

STARLINK-371771 68611U 26073K   26145.19844361 -.01189709  00000+0 -14104-1 0  99912 68611  97.2846 344.7902 0000739  97.4120 262.7223 15.63868279  7603

JSON: /api/v1/satellites/68611 · /tle

For live sub-satellite position, see the globe view (requires WebGL).

§ Visibility from observer

Set your observer location to see the next 7 days of passes ≥ 10°. The values pass through the URL so the page stays shareable.

No JS? Fill the form by hand. The geolocation button needs JavaScript.